When you browse on this site, cookies collect data to enhance your experience and personalize the content and advertising you see.
Visit our Privacy Policy to learn more. By continuing to use the site, you agree to this use of cookies and data.

Hourly Weather Grand Bassam

Today, 19 September, Saturday

Time Temperature Precipitation Wind Pressure Humidity
00:00 +25°C° 0 mm 3 mps 760 mmHg 93%
01:00 +25°C° 0 mm 3 mps 760 mmHg 92%
02:00 +25°C° 0 mm 3 mps 759 mmHg 91%
03:00 +25°C° 0 mm 3 mps 759 mmHg 91%
04:00 +25°C° 0 mm 3 mps 759 mmHg 90%
05:00 +25°C° 0 mm 3 mps 759 mmHg 89%
06:00 +25°C° 0 mm 3 mps 759 mmHg 88%
07:00 +26°C° 0 mm 3 mps 760 mmHg 86%
08:00 +26°C° 0 mm 3 mps 760 mmHg 83%
09:00 +27°C° 0 mm 2 mps 761 mmHg 80%
10:00 +27°C° 0.1 mm 3 mps 760 mmHg 81%
11:00 +27°C° 0.1 mm 3 mps 760 mmHg 82%
12:00 +27°C° 0.1 mm 3 mps 760 mmHg 83%
13:00 +27°C° 0.1 mm 3 mps 760 mmHg 83%
14:00 +27°C° 0.1 mm 3 mps 759 mmHg 83%
15:00 +27°C° 0.1 mm 3 mps 758 mmHg 84%
16:00 +26°C° 0.4 mm 3 mps 759 mmHg 86%
17:00 +26°C° 0.4 mm 3 mps 759 mmHg 89%
18:00 +25°C° 0.4 mm 3 mps 759 mmHg 92%
19:00 +25°C° 0.3 mm 4 mps 759 mmHg 92%
20:00 +25°C° 0.3 mm 4 mps 759 mmHg 92%
21:00 +25°C° 0.3 mm 5 mps 760 mmHg 92%
22:00 +25°C° 0.1 mm 4 mps 760 mmHg 92%
23:00 +25°C° 0.1 mm 4 mps 760 mmHg 92%

Tomorrow, 20 September, Sunday

Time Temperature Precipitation Wind Pressure Humidity
00:00 +25°C° 0.1 mm 3 mps 760 mmHg 93%
01:00 +25°C° 0.1 mm 3 mps 760 mmHg 93%
02:00 +25°C° 0.1 mm 3 mps 759 mmHg 93%
03:00 +25°C° 0.1 mm 3 mps 759 mmHg 93%
04:00 +25°C° 0.1 mm 3 mps 759 mmHg 93%
05:00 +25°C° 0.1 mm 3 mps 760 mmHg 94%
06:00 +25°C° 0.1 mm 2 mps 760 mmHg 94%
07:00 +26°C° 0.1 mm 3 mps 760 mmHg 91%
08:00 +26°C° 0.1 mm 3 mps 760 mmHg 88%
09:00 +27°C° 0.1 mm 4 mps 761 mmHg 86%
10:00 +27°C° 0.1 mm 4 mps 760 mmHg 83%
11:00 +28°C° 0.1 mm 5 mps 760 mmHg 80%
12:00 +29°C° 0.1 mm 6 mps 759 mmHg 77%
13:00 +29°C° 0 mm 6 mps 759 mmHg 76%
14:00 +29°C° 0 mm 6 mps 758 mmHg 76%
15:00 +29°C° 0 mm 5 mps 757 mmHg 75%
16:00 +28°C° 0 mm 5 mps 758 mmHg 79%
17:00 +27°C° 0 mm 5 mps 758 mmHg 82%
18:00 +26°C° 0 mm 5 mps 758 mmHg 85%
19:00 +26°C° 0 mm 5 mps 759 mmHg 86%
20:00 +26°C° 0 mm 5 mps 759 mmHg 87%
21:00 +26°C° 0 mm 5 mps 760 mmHg 88%
22:00 +26°C° 0.1 mm 5 mps 760 mmHg 88%
23:00 +26°C° 0.1 mm 5 mps 760 mmHg 89%

Day after tomorrow, 21 September, Monday

Time Temperature Precipitation Wind Pressure Humidity
00:00 +26°C° 0.1 mm 5 mps 760 mmHg 89%
01:00 +26°C° 0.1 mm 5 mps 760 mmHg 89%
02:00 +26°C° 0.1 mm 5 mps 759 mmHg 89%
03:00 +25°C° 0.1 mm 5 mps 759 mmHg 90%
04:00 +25°C° 0.1 mm 4 mps 759 mmHg 90%
05:00 +25°C° 0.1 mm 4 mps 759 mmHg 90%
06:00 +25°C° 0.1 mm 4 mps 760 mmHg 91%
07:00 +26°C° 0.1 mm 4 mps 760 mmHg 87%
08:00 +27°C° 0.1 mm 4 mps 760 mmHg 84%
09:00 +27°C° 0.1 mm 4 mps 761 mmHg 81%
10:00 +28°C° 0 mm 4 mps 761 mmHg 76%
11:00 +29°C° 0 mm 4 mps 760 mmHg 72%
12:00 +30°C° 0 mm 5 mps 760 mmHg 67%
13:00 +30°C° 0 mm 5 mps 759 mmHg 69%
14:00 +29°C° 0 mm 5 mps 759 mmHg 71%
15:00 +29°C° 0 mm 5 mps 758 mmHg 73%
16:00 +28°C° 0 mm 5 mps 758 mmHg 77%
17:00 +27°C° 0 mm 5 mps 758 mmHg 80%
18:00 +26°C° 0 mm 5 mps 758 mmHg 84%
19:00 +26°C° 0 mm 4 mps 759 mmHg 86%
20:00 +26°C° 0 mm 4 mps 759 mmHg 88%
21:00 +26°C° 0 mm 4 mps 760 mmHg 90%
22:00 +25°C° 0 mm 4 mps 760 mmHg 90%
23:00 +25°C° 0 mm 4 mps 760 mmHg 91%

22 September, Tuesday

Time Temperature Precipitation Wind Pressure Humidity
00:00 +25°C° 0 mm 3 mps 760 mmHg 92%
01:00 +25°C° 0 mm 4 mps 760 mmHg 91%
02:00 +25°C° 0 mm 4 mps 759 mmHg 90%
03:00 +25°C° 0 mm 4 mps 759 mmHg 90%
04:00 +26°C° 0.1 mm 4 mps 759 mmHg 89%
05:00 +26°C° 0.1 mm 4 mps 759 mmHg 89%
06:00 +26°C° 0.1 mm 4 mps 760 mmHg 88%
07:00 +26°C° 0.1 mm 4 mps 760 mmHg 86%
08:00 +27°C° 0.1 mm 4 mps 760 mmHg 83%
09:00 +27°C° 0.1 mm 4 mps 761 mmHg 81%
10:00 +28°C° 0 mm 4 mps 761 mmHg 77%
11:00 +29°C° 0 mm 4 mps 760 mmHg 72%
12:00 +30°C° 0 mm 4 mps 760 mmHg 68%
13:00 +30°C° 0 mm 4 mps 759 mmHg 69%
14:00 +29°C° 0 mm 5 mps 758 mmHg 70%
15:00 +29°C° 0 mm 5 mps 758 mmHg 72%
16:00 +28°C° 0 mm 5 mps 758 mmHg 76%
17:00 +27°C° 0 mm 5 mps 758 mmHg 80%
18:00 +27°C° 0 mm 5 mps 758 mmHg 84%
19:00 +26°C° 0 mm 4 mps 759 mmHg 86%
20:00 +26°C° 0 mm 4 mps 760 mmHg 88%
21:00 +26°C° 0 mm 4 mps 760 mmHg 90%
22:00 +26°C° 0 mm 4 mps 760 mmHg 90%
23:00 +26°C° 0 mm 5 mps 760 mmHg 89%

23 September, Wednesday

Time Temperature Precipitation Wind Pressure Humidity
00:00 +26°C° 0 mm 5 mps 760 mmHg 89%
01:00 +26°C° 0 mm 5 mps 760 mmHg 88%
02:00 +26°C° 0 mm 5 mps 759 mmHg 87%
03:00 +26°C° 0 mm 5 mps 759 mmHg 87%
04:00 +26°C° 0.1 mm 5 mps 759 mmHg 87%
05:00 +26°C° 0.1 mm 5 mps 759 mmHg 88%
06:00 +26°C° 0.1 mm 4 mps 759 mmHg 88%
07:00 +26°C° 0.1 mm 4 mps 760 mmHg 86%
08:00 +27°C° 0.1 mm 4 mps 760 mmHg 83%
09:00 +27°C° 0.1 mm 4 mps 760 mmHg 80%
10:00 +28°C° 0.1 mm 4 mps 760 mmHg 77%
11:00 +29°C° 0.1 mm 4 mps 760 mmHg 73%
12:00 +29°C° 0.1 mm 4 mps 759 mmHg 70%
13:00 +30°C° 0 mm 4 mps 759 mmHg 70%
14:00 +30°C° 0 mm 5 mps 758 mmHg 70%
15:00 +30°C° 0 mm 5 mps 757 mmHg 70%
16:00 +29°C° 0 mm 5 mps 757 mmHg 75%
17:00 +28°C° 0 mm 5 mps 758 mmHg 79%
18:00 +27°C° 0 mm 5 mps 758 mmHg 84%
19:00 +26°C° 0 mm 4 mps 759 mmHg 86%
20:00 +26°C° 0 mm 4 mps 759 mmHg 88%
21:00 +26°C° 0 mm 4 mps 760 mmHg 91%
22:00 +26°C° 0 mm 4 mps 760 mmHg 91%
23:00 +25°C° 0 mm 4 mps 760 mmHg 91%

24 September, Thursday

Time Temperature Precipitation Wind Pressure Humidity
00:00 +25°C° 0 mm 5 mps 760 mmHg 91%
01:00 +25°C° 0.1 mm 5 mps 759 mmHg 90%
02:00 +25°C° 0.1 mm 5 mps 759 mmHg 90%
03:00 +25°C° 0.1 mm 5 mps 759 mmHg 90%
04:00 +25°C° 0 mm 4 mps 759 mmHg 89%
05:00 +25°C° 0 mm 4 mps 759 mmHg 89%
06:00 +25°C° 0 mm 4 mps 759 mmHg 89%
07:00 +26°C° 0 mm 4 mps 759 mmHg 85%
08:00 +27°C° 0 mm 4 mps 760 mmHg 81%
09:00 +28°C° 0 mm 4 mps 760 mmHg 77%
10:00 +29°C° 0 mm 4 mps 760 mmHg 72%
11:00 +30°C° 0 mm 4 mps 759 mmHg 68%
12:00 +32°C° 0 mm 4 mps 759 mmHg 63%
13:00 +30°C° 0 mm 4 mps 758 mmHg 65%
14:00 +30°C° 0 mm 4 mps 758 mmHg 67%
15:00 +29°C° 0 mm 4 mps 757 mmHg 69%
16:00 +28°C° 0 mm 4 mps 757 mmHg 73%
17:00 +27°C° 0 mm 4 mps 757 mmHg 77%
18:00 +27°C° 0 mm 4 mps 758 mmHg 81%
19:00 +26°C° 0 mm 4 mps 758 mmHg 84%
20:00 +26°C° 0 mm 4 mps 759 mmHg 87%
21:00 +26°C° 0 mm 4 mps 759 mmHg 90%
22:00 +25°C° 0 mm 4 mps 759 mmHg 90%
23:00 +25°C° 0 mm 4 mps 759 mmHg 90%
Show more